FENGYUN 1C DEB

Satellite information

Favourite Embed

Satellite Type and Status

DEBRISIN ORBIT

Key statistics

Satellite FENGYUN 1C DEB at a glance.

Uptime

9714

Days in orbit

Revolutions

≈ 15.0

Per day

Orbit

SSO

Sun Synchronous Orbit

Inclination

98.9

Latest

Satellite identification and parameters

Extended collection of information and parameters for FENGYUN 1C DEB.

Object identification

Identified? True

Debris? True

Object name: FENGYUN 1C DEB

International designator: 1999-025AQG

Object number (NORAD): 30674

Object ID (CCSDS): 30674

Country: PEOPLES REPUBLIC OF CHINA (PRC)

Current information (Y/N): Y

RCS size: SMALL

Orbital parameters

Period: 96.29 minutes

Inclination: 98.9398 deg

SMA: 6959.006 km

Apoapsis: 598.673 km

Periapsis: 563.068 km

RAAN: 148.6655 deg

Eccentricy: 0.0025582

Argument of periapsis: 303.9507 deg

Mean anomaly: 55.9279 deg

Mean motion: 14.95484756 rev/day

Mean motion (dot): 0.00099173 rev/day2

B* drag term: 0.0087876 1/REarth

Two-line elements (TLE)

Creation date: Dec. 12, 2025, 7:26 a.m.

Reference frame: TEME

Reference center: EARTH

Epoch: Dec. 11, 2025, 11:09 p.m. UTC

TLE line 0: 0 FENGYUN 1C DEB

TLE line 1: 1 30674U 99025AQG 25345.96467860 .00099173 00000-0 87876-2 0 9997

TLE line 2: 2 30674 98.9398 148.6655 0025582 303.9507 55.9279 14.95484756973405

Live tracking on map

Real-time ground track for satellite FENGYUN 1C DEB.

In-orbit conjunctions

A list of the most updated potential collisions computed for object FENGYUN 1C DEB.

Target Orbit TCA Probability of collision Miss distance Type
THOR ALTAIR DEB SSO 2025-10-17 17:45:57 0.0001502431 333.0 (m) DEBRIS
PICOSAT 3 SSO 2025-04-25 04:10:25 0.0002059332 567.0 (m) PAYLOAD
CHUANG XIN 1 (CZ-1) SSO 2024-05-29 07:10:41 0.0001892733 400.0 (m) PAYLOAD

Associated space launch

Chinese polar orbiting meteorological satellite

FENGYUN 1C DEB was lifted into orbit during the mission ‘Long March 4B | Feng Yun 1C’, on board a Long March 4B space rocket.

The launch took place on May 10, 1999, 1:33 a.m. from Launch Complex 7.

For more information about the launch, click the button.

Launch to space Long March 4B | Feng Yun 1C
Long March 4B | Feng Yun 1C

Agency: N/A

Status: Launch Successful

Launch date: May 10, 1999, 1:33 a.m. UTC

Rocket: Long March 4B

Launch pad: Launch Complex 7

Location: Taiyuan Satellite Launch Center, People's Republic of China

...

Latest news about this satellite

There are no fresh news available about this satellite. Check back as we update our databases every day.


Newsletter sign-up

Weekly statistics, charts and insights to help you stay on top of the space industry.